[Date Prev][Date Next][Thread Prev][Thread Next] - [Date Index][Thread Index][Author Index]

2 Line ISS Keps 12-10



ISS
1 25544U 98067A   03344.16943444  .00019866  00000-0  19934-3 0  8762
2 25544  51.6285 212.2113 0006204 228.4096 276.5583 15.65481122288519


----
Via the sarex mailing list at AMSAT.ORG courtesy of AMSAT-NA.
To unsubscribe, send "unsubscribe sarex" to Majordomo@amsat.org



AMSAT Top AMSAT Home